Home > Weather > Sarh > Past weeks

Flag for Chad Weather for the Past 2 Weeks in Sarh, Chad

Now
79 °F

Clear.


Feels Like: 79 °F
Forecast: 69 / 98 °F
Wind: No wind

Location: Sarh Airport

Current Time: Feb 6, 2016 at 9:41:47 PM

Latest Report: Feb 6, 2016 at 9:00 PM


Visibility: 10 mi

Pressure: 29.92 "Hg

Humidity: 32%

Dew point: 46 °F

Location of SarhLocation

Historic Weather in Sarh — Graph

°F

Sarh Temperature Yesterday

Maximum temperature yesterday: 102 °F (at 2:00 PM)
Minimum temperature yesterday: 68 °F (at 5:00 AM)
Average temperature yesterday: 85 °F

High & Low Weather Summary for the Past Weeks

 TemperatureHumidityPressure
High102 °F (Feb 5, 2:00 PM)65% (Feb 6, 2:00 AM)30.15 "Hg (Feb 6, 2:00 AM)
Low55 °F (Jan 29, 6:00 AM)6% (Jan 24, 3:00 PM)29.80 "Hg (Feb 5, 5:00 PM)
Average79 °F25%29.97 "Hg
* Reported Jan 22 8:00 PM — Feb 6 8:00 PM, Sarh, Weather by CustomWeather, © 2016

Note: Actual official high and low records may vary slightly from our data, if they occured in-between our weather recording intervals... More about our weather records

Advertising

Sarh Weather History for the Previous 24 Hours

 ConditionsComfort  
Time TempWeatherWind HumidityBarometerVisibility
8:00 PM
Sat, Feb 6
81 °FClear.No wind32%29.92 "Hg10 mi
7:00 PM86 °FClear.No wind31%29.89 "Hg10 mi
6:00 PM91 °FClear.No wind20%29.86 "Hg10 mi
5:00 PM97 °FSunny.7 mph13%29.83 "Hg10 mi
4:00 PM99 °FSunny.9 mph11%29.86 "Hg10 mi
3:00 PM100 °FSunny.12 mph10%29.86 "Hg10 mi
2:00 PM100 °FSunny.9 mph10%29.86 "Hg10 mi
1:00 PM99 °FSunny.12 mph11%29.89 "Hg10 mi
12:00 PM97 °FSunny.14 mph9%29.95 "Hg10 mi
11:00 AM93 °FSunny.9 mph11%29.98 "Hg10 mi
10:00 AM91 °FSunny.12 mph10%30.01 "Hg10 mi
9:00 AM82 °FSunny.7 mph19%30.01 "Hg10 mi
8:00 AM81 °FSunny.7 mph21%30.01 "Hg10 mi
7:00 AM68 °FSunny.No wind40%29.92 "Hg10 mi
6:00 AM68 °FClear.No wind38%29.92 "Hg10 mi
5:00 AM70 °FClear.No wind35%29.92 "Hg10 mi
4:00 AM73 °FClear.No wind31%29.89 "Hg10 mi
3:00 AM75 °FClear.7 mph25%29.89 "Hg10 mi
2:00 AM75 °FClear.5 mph65%29.89 "Hg10 mi
1:00 AM75 °FClear.No wind31%29.89 "Hg10 mi
12:00 AM77 °FClear.No wind26%29.89 "Hg10 mi
11:00 PM
Fri, Feb 5
75 °FClear.2 mph36%29.89 "Hg10 mi
10:00 PM77 °FClear.No wind39%29.89 "Hg10 mi
9:00 PM79 °FClear.No wind32%29.89 "Hg10 mi
Weather by CustomWeather, © 2016

See weather overviewHow to use our weather pages